Back to catalog

BREEZE-M R/B

AliveHEO
NORAD 28656·ROCKET BODY·🇷🇺 Russia

Launched Mar 15, 2004 from Baikonur Cosmodrome

Loading…

Next Passes (next 24 hours)

TLE

FreshSource: Space-Track

Epoch: Sep 14, 2026, 15:45 UTC

1 28656U 04008C   26257.65649435 -.00000265  00000-0  00000-0 0  9997
2 28656  12.4289 261.3095 6086905  54.0130 348.3851  1.97325674156028

Track BREEZE-M R/B in real time with AllMySat

Download on the App Store